Regional Weather Roundup
Issued by NWS

Home | Current Version | Previous Version | Text Only | Print | Product List | Glossary Off
Versions: 1 2 3 4 5 6 7 8 9 10 11 12 13 14 15 16 17 18 19 20 21 22 23 24 25 26 27 28 29 30 31 32 33 34 35 36 37 38 39 40 41 42 43 44 45 46 47 48 49 50

000
ASUS43 KBIS 170620
RWRND

NORTH DAKOTA REGIONAL WEATHER ROUNDUP
NATIONAL WEATHER SERVICE BISMARCK ND
100 AM CDT THU APR 17 2014

NOTE: "FAIR" INDICATES FEW OR NO CLOUDS BELOW 12,000 FEET WITH NO
SIGNIFICANT WEATHER AND/OR OBSTRUCTIONS TO VISIBILITY.


NDZ001>003-009>011-017-170700-
NORTHWEST NORTH DAKOTA

CITY           SKY/WX    TMP DP  RH WIND       PRES   REMARKS
WILLISTON        N/A    N/A N/A N/A MISG      30.27S
MINOT          CLOUDY    23  14  68 E5        30.31R WCI  17
MINOT AFB      CLOUDY    24  16  70 E9        30.31R WCI  15
$$

NDZ018>021-031>035-040>046-170700-
SOUTHWEST NORTH DAKOTA

CITY           SKY/WX    TMP DP  RH WIND       PRES   REMARKS
BISMARCK       CLOUDY    29  16  58 E6        30.28R
6HR MIN TEMP:  28; 6HR MAX TEMP:  37;

DICKINSON      CLOUDY    27  20  75 E6        30.20R
GARRISON         N/A     27  16  63 E14       30.28R WCI  16
6HR MIN TEMP:  27; 6HR MAX TEMP:  33;

HETTINGER ARPT CLOUDY    28  21  75 E8        30.20S WCI  20
$$

NDZ004>008-012>016-024-026-027-054-170700-
NORTHEAST NORTH DAKOTA

CITY           SKY/WX    TMP DP  RH WIND       PRES   REMARKS
GRAND FORKS    FAIR      24  19  81 N7        30.27R WCI  16
GRND FRKS AFB  FAIR      24  17  73 N10       30.32R WCI  13
DEVILS LAKE    FAIR      23  10  58 NE8       30.32R WCI  14
$$

NDZ022-023-025-028>030-036>039-047>053-170700-
SOUTHEAST NORTH DAKOTA

CITY           SKY/WX    TMP DP  RH WIND       PRES   REMARKS
FARGO          FAIR      29  17  61 N10       30.25R WCI  20
6HR MIN TEMP:  29; 6HR MAX TEMP:  38;

JAMESTOWN      FAIR      25  19  78 N10       30.26R WCI  15
$$




USA.gov is the U.S. government's official web portal to all federal, state and local government web resources and services.